GW4866 Weather Reports


time (UTC)temp
C
wind
direction
speed
KPH
gust
KPH
rain 1hr
cm
rain 24hr
cm
rain mn
cm
humidity
%
barometer
mb
20260505140504 3 70 1.6 4.8 0.00 0.08 0.00 87 1012.6
20260505125004 4 286 0.0 1.6 0.00 0.08 0.00 85 1012.0
20260505124504 4 286 0.0 3.2 0.00 0.08 0.00 85 1011.9
20260505124004 4 295 1.6 4.8 0.00 0.08 0.00 85 1011.8
20260505123004 4 296 1.6 6.4 0.00 0.08 0.00 85 1011.7
20260505122505 4 300 1.6 6.4 0.00 0.08 0.00 83 1011.4
20260505122004 4 302 0.0 4.8 0.00 0.08 0.00 82 1011.2
20260505121504 4 291 0.0 3.2 0.00 0.08 0.00 82 1011.1
20260505121004 4 288 0.0 3.2 0.00 0.08 0.00 82 1011.1
20260505120504 5 66 0.0 3.2 0.00 0.08 0.00 81 1011.2
20260505120005 5 98 0.0 3.2 0.00 0.08 0.00 81 1011.2
20260505115504 5 95 0.0 3.2 0.00 0.08 0.00 81 1011.1
20260505115004 5 90 0.0 3.2 0.00 0.08 0.00 82 1011.3
20260505114504 5 309 0.0 3.2 0.00 0.08 0.00 83 1011.2
20260505114004 5 312 0.0 3.2 0.00 0.08 0.00 82 1011.2
20260505113504 5 315 0.0 1.6 0.00 0.08 0.00 83 1011.1
20260505113004 5 336 0.0 1.6 0.00 0.08 0.00 82 1011.1
20260505112504 5 32 0.0 1.6 0.00 0.08 0.00 82 1010.9
20260505112004 5 194 0.0 1.6 0.00 0.08 0.00 82 1010.9
20260505111504 5 301 0.0 1.6 0.00 0.08 0.00 83 1010.9
20260505111004 5 307 0.0 1.6 0.00 0.08 0.00 84 1011.2
20260505110504 5 295 0.0 1.6 0.00 0.08 0.00 86 1011.2
20260505102004 5 0 0.0 0.0 0.00 0.08 0.00 90 1011.0
20260505101504 4 0 0.0 0.0 0.00 0.08 0.00 90 1011.0
20260505101004 4 0 0.0 0.0 0.00 0.08 0.00 89 1010.8
20260505100504 4 0 0.0 0.0 0.00 0.08 0.00 89 1010.9
20260505100004 4 0 0.0 0.0 0.00 0.08 0.00 89 1010.8
20260505095504 5 0 0.0 0.0 0.00 0.08 0.00 89 1010.7
20260505095004 5 0 0.0 0.0 0.00 0.08 0.00 88 1010.8
20260505094504 5 0 0.0 0.0 0.00 0.08 0.00 88 1010.7
20260505094004 5 0 0.0 0.0 0.00 0.08 0.00 88 1010.7
20260505093504 5 0 0.0 0.0 0.00 0.08 0.00 88 1010.5
20260505092504 5 0 0.0 0.0 0.00 0.08 0.00 88 1010.3
20260505092004 5 0 0.0 0.0 0.00 0.08 0.00 88 1010.4
20260505091504 5 305 0.0 1.6 0.00 0.08 0.00 88 1010.6
20260505091004 5 294 0.0 3.2 0.00 0.08 0.00 88 1010.5
20260505090504 5 291 0.0 3.2 0.00 0.08 0.00 88 1010.4
20260505090004 5 292 0.0 3.2 0.00 0.08 0.00 89 1010.3
20260505085004 5 0 0.0 0.0 0.00 0.08 0.00 91 1011.3
20260505084504 5 0 0.0 0.0 0.00 0.08 0.00 91 1011.5
20260505084004 5 0 0.0 0.0 0.00 0.08 0.00 91 1011.6
20260505083004 5 0 0.0 0.0 0.00 0.08 0.00 92 1011.5
20260505082504 5 0 0.0 0.0 0.00 0.08 0.00 92 1011.6
20260505082004 5 0 0.0 0.0 0.00 0.08 0.00 91 1011.8
20260505081504 5 0 0.0 0.0 0.00 0.08 0.00 91 1011.8
20260505081004 5 0 0.0 0.0 0.00 0.08 0.00 91 1011.6
20260505080504 5 0 0.0 0.0 0.00 0.08 0.00 91 1011.7
20260505080004 5 0 0.0 0.0 0.00 0.08 0.00 91 1011.7
20260505075504 5 0 0.0 0.0 0.00 0.08 0.00 92 1011.8
20260505075003 5 0 0.0 0.0 0.00 0.08 0.00 91 1011.8
20260505074504 5 0 0.0 0.0 0.00 0.08 0.00 91 1011.8
20260505074004 5 0 0.0 0.0 0.00 0.08 0.00 91 1011.9
20260505073504 5 0 0.0 0.0 0.00 0.08 0.00 91 1011.9
20260505072504 5 0 0.0 0.0 0.00 0.08 0.00 91 1012.0
20260505072004 5 0 0.0 0.0 0.00 0.08 0.00 91 1012.0
20260505071504 5 0 0.0 0.0 0.00 0.08 0.00 90 1011.9
20260505071004 5 215 0.0 1.6 0.00 0.08 0.00 90 1011.9
20260505070510 5 215 0.0 1.6 0.00 0.08 0.00 90 1012.0
20260505070005 5 215 0.0 1.6 0.00 0.08 0.00 90 1012.1
20260505065503 5 216 0.0 1.6 0.00 0.08 0.00 90 1012.1
20260505065004 5 217 0.0 1.6 0.00 0.08 0.00 90 1012.0
20260505064503 6 217 0.0 1.6 0.03 0.08 0.00 89 1012.0
20260505063004 6 0 0.0 0.0 0.03 0.08 0.00 89 1012.2
20260505062503 6 168 0.0 1.6 0.03 0.08 0.00 88 1012.0
20260505062004 6 153 0.0 3.2 0.03 0.08 0.00 88 1011.8
20260505061504 6 152 0.0 3.2 0.03 0.08 0.00 88 1011.9
20260505061004 6 210 0.0 1.6 0.03 0.08 0.00 87 1011.9
20260505060504 6 209 0.0 1.6 0.03 0.08 0.00 86 1012.0
20260505060009 6 0 0.0 0.0 0.03 0.08 0.00 86 1012.3
20260505055504 6 198 0.0 3.2 0.03 0.08 0.08 85 1012.3
20260505055005 6 198 0.0 3.2 0.03 0.08 0.08 84 1012.2
20260505054504 6 0 0.0 0.0 0.00 0.05 0.05 83 1012.2
20260505054004 6 141 0.0 3.2 0.00 0.05 0.05 82 1012.2
20260505053504 6 162 0.0 4.8 0.00 0.05 0.05 81 1012.2
20260505053004 6 169 0.0 4.8 0.00 0.05 0.05 79 1012.0
20260505052503 6 0 0.0 0.0 0.00 0.05 0.05 79 1012.2
20260505052004 7 0 0.0 0.0 0.00 0.05 0.05 78 1012.3
20260505051505 7 0 0.0 0.0 0.00 0.05 0.05 77 1012.1
20260505050504 7 0 0.0 0.0 0.00 0.05 0.05 76 1012.1
20260505041005 7 199 1.6 8.0 0.00 0.05 0.05 77 1011.1
20260505040504 7 202 1.6 8.0 0.00 0.05 0.05 77 1011.2
20260505040005 7 187 1.6 8.0 0.00 0.05 0.05 78 1011.3
20260505035004 7 165 3.2 8.0 0.00 0.05 0.05 77 1011.1
20260505034004 7 187 1.6 9.7 0.00 0.05 0.05 77 1011.4
20260505033503 7 193 0.0 8.0 0.00 0.05 0.05 77 1011.4
20260505033004 7 195 0.0 3.2 0.00 0.05 0.05 77 1011.4
20260505032504 7 187 0.0 3.2 0.00 0.05 0.05 77 1011.3
20260505032004 7 193 1.6 11.3 0.00 0.05 0.05 77 1011.1
20260505031504 7 191 4.8 11.3 0.00 0.05 0.05 76 1011.0
20260505031005 7 196 3.2 11.3 0.00 0.05 0.05 76 1010.9
20260505030504 7 205 3.2 8.0 0.00 0.05 0.05 77 1010.9
20260505030004 7 198 3.2 12.9 0.00 0.05 0.05 77 1011.0
20260505025505 7 190 1.6 12.9 0.00 0.05 0.05 77 1011.0
20260505024004 7 212 0.0 6.4 0.03 0.05 0.05 80 1011.1
20260505023504 7 214 0.0 6.4 0.03 0.05 0.05 80 1011.0
20260505022503 7 185 0.0 4.8 0.05 0.05 0.05 80 1010.9
20260505021503 7 201 0.0 3.2 0.05 0.05 0.05 79 1010.7
20260505021004 7 173 0.0 4.8 0.05 0.05 0.05 79 1010.8
20260505020504 7 148 1.6 4.8 0.05 0.05 0.05 78 1011.0
20260505020004 7 157 3.2 8.0 0.05 0.05 0.05 78 1010.9
20260505015505 7 164 6.4 14.5 0.05 0.05 0.05 77 1011.2
20260505014504 8 183 3.2 14.5 0.05 0.05 0.05 71 1011.2
20260505013504 10 183 1.6 14.5 0.03 0.03 0.03 61 1011.0
20260505012504 10 182 1.6 8.0 0.00 0.00 0.00 60 1011.0
20260505012004 11 163 3.2 11.3 0.00 0.00 0.00 59 1011.2
20260505011504 11 169 1.6 11.3 0.00 0.00 0.00 54 1011.1
20260505010004 12 159 1.6 6.4 0.00 0.00 0.00 45 1010.2
20260505005504 12 168 0.0 6.4 0.00 0.00 0.00 44 1010.5
20260505005004 12 170 0.0 4.8 0.00 0.00 0.00 43 1010.2
20260505004504 12 173 3.2 12.9 0.00 0.00 0.00 43 1009.8
20260505004003 12 174 3.2 16.1 0.00 0.00 0.00 42 1009.8
20260505003503 12 181 4.8 16.1 0.00 0.00 0.00 41 1009.6
20260505003004 13 182 6.4 12.9 0.00 0.00 0.00 40 1009.4
20260505002504 13 186 6.4 17.7 0.00 0.00 0.00 39 1009.2
20260505002004 13 184 6.4 17.7 0.00 0.00 0.00 38 1009.0
20260505001504 13 171 8.0 19.3 0.00 0.00 0.00 37 1008.8
20260505001004 14 165 8.0 19.3 0.00 0.00 0.00 37 1008.9
20260505000504 14 165 6.4 17.7 0.00 0.00 0.00 36 1008.7
20260504235504 15 185 4.8 17.7 0.00 0.00 0.00 33 1008.8
20260504235004 16 186 4.8 16.1 0.00 0.00 0.00 33 1008.8
20260504234505 16 191 3.2 12.9 0.00 0.00 0.00 33 1008.7
20260504234004 16 185 4.8 12.9 0.00 0.00 0.00 33 1008.9
20260504233504 16 181 6.4 14.5 0.00 0.00 0.00 34 1008.8
20260504233004 16 170 6.4 14.5 0.00 0.00 0.00 33 1008.8
20260504232504 16 160 4.8 12.9 0.00 0.00 0.00 32 1008.9
20260504232003 17 176 1.6 9.7 0.00 0.00 0.00 31 1008.7
20260504231504 17 183 1.6 6.4 0.00 0.00 0.00 32 1008.7
20260504231004 16 150 1.6 6.4 0.00 0.00 0.00 33 1008.8
20260504230504 16 141 1.6 6.4 0.00 0.00 0.00 33 1008.6
20260504225003 16 93 1.6 8.0 0.00 0.00 0.00 34 1009.1
20260504224504 16 67 3.2 12.9 0.00 0.00 0.00 33 1009.1
20260504224003 15 62 4.8 19.3 0.00 0.00 0.00 35 1009.4
20260504223504 16 71 4.8 19.3 0.00 0.00 0.00 33 1009.0
20260504223004 16 80 4.8 14.5 0.00 0.00 0.00 33 1009.2
20260504222504 16 73 6.4 12.9 0.00 0.00 0.00 33 1009.2
20260504222004 16 72 6.4 16.1 0.00 0.00 0.00 33 1009.2
20260504221004 16 59 1.6 11.3 0.00 0.00 0.00 31 1009.1
20260504220503 16 73 0.0 8.0 0.00 0.00 0.00 29 1009.2
20260504215004 16 172 4.8 16.1 0.00 0.00 0.00 30 1008.9
20260504214503 16 191 3.2 14.5 0.00 0.00 0.00 30 1009.0
20260504214004 16 171 4.8 14.5 0.00 0.00 0.00 30 1009.0
20260504213504 16 140 3.2 12.9 0.00 0.00 0.00 30 1008.9
20260504213004 17 160 1.6 11.3 0.00 0.00 0.00 27 1008.9
20260504212504 17 177 1.6 9.7 0.00 0.00 0.00 24 1008.5
20260504212003 17 182 3.2 14.5 0.00 0.00 0.00 25 1008.7
20260504211504 18 174 4.8 14.5 0.00 0.00 0.00 23 1008.4
20260504211003 18 167 3.2 9.7 0.00 0.00 0.00 23 1008.4
20260504210504 19 158 3.2 9.7 0.00 0.00 0.00 23 1008.4
20260504210004 19 137 1.6 8.0 0.00 0.00 0.00 23 1008.4
20260504205504 19 133 1.6 6.4 0.00 0.00 0.00 24 1008.5
20260504205004 20 144 0.0 4.8 0.00 0.00 0.00 22 1008.6
20260504204504 19 106 1.6 8.0 0.00 0.00 0.00 22 1008.5
20260504204003 18 109 1.6 8.0 0.00 0.00 0.00 23 1008.7
20260504203003 19 95 1.6 6.4 0.00 0.00 0.00 21 1008.9
20260504202504 18 93 3.2 9.7 0.00 0.00 0.00 23 1008.9
20260504202004 18 96 3.2 9.7 0.00 0.00 0.00 22 1009.1
20260504201504 18 100 1.6 6.4 0.00 0.00 0.00 24 1009.1
20260504201004 18 105 6.4 14.5 0.00 0.00 0.00 23 1009.2
20260504200004 18 110 6.4 14.5 0.00 0.00 0.00 23 1009.3
20260504195503 18 105 6.4 16.1 0.00 0.00 0.00 23 1009.3
20260504195004 18 98 4.8 16.1 0.00 0.00 0.00 23 1009.3
20260504194504 19 84 1.6 12.9 0.00 0.00 0.00 21 1009.3
20260504194004 19 66 1.6 8.0 0.00 0.00 0.00 19 1009.2
20260504193504 19 70 1.6 9.7 0.00 0.00 0.00 18 1009.2
20260504193004 20 81 1.6 9.7 0.00 0.00 0.00 17 1009.2
20260504192504 21 87 0.0 4.8 0.00 0.00 0.00 18 1009.3
20260504192003 21 179 0.0 4.8 0.00 0.00 0.00 16 1009.2
20260504191504 21 133 1.6 8.0 0.00 0.00 0.00 17 1009.4
20260504190504 22 100 4.8 8.0 0.00 0.00 0.00 15 1009.4
20260504190004 22 89 4.8 27.4 0.00 0.00 0.00 18 1009.4
20260504185504 22 105 3.2 27.4 0.00 0.00 0.00 18 1009.6
20260504185003 22 121 3.2 12.9 0.00 0.00 0.00 17 1009.6
20260504184003 22 123 1.6 6.4 0.00 0.00 0.00 17 1009.8
20260504183503 21 139 1.6 6.4 0.00 0.00 0.00 16 1009.8
20260504183005 21 70 4.8 14.5 0.00 0.00 0.00 18 1010.1
20260504182504 20 70 4.8 19.3 0.00 0.00 0.00 17 1010.1
20260504182004 20 86 4.8 19.3 0.00 0.00 0.00 17 1010.2
20260504181503 21 88 4.8 14.5 0.00 0.00 0.00 18 1010.4
20260504181004 20 67 3.2 14.5 0.00 0.00 0.00 18 1010.3
20260504180005 20 95 1.6 6.4 0.00 0.00 0.00 20 1010.6
20260504175503 20 100 3.2 11.3 0.00 0.00 0.00 20 1010.6
20260504175004 19 97 3.2 11.3 0.00 0.00 0.00 20 1010.7
20260504174504 18 92 4.8 11.3 0.00 0.00 0.00 21 1010.9
20260504174003 17 95 4.8 17.7 0.00 0.00 0.00 24 1010.9
20260504173504 17 95 4.8 17.7 0.00 0.00 0.00 24 1011.1
20260504172504 18 105 3.2 9.7 0.00 0.00 0.00 24 1011.1
20260504172003 18 110 4.8 11.3 0.00 0.00 0.00 24 1011.3
20260504171504 18 112 6.4 12.9 0.00 0.00 0.00 25 1011.5
20260504171004 18 109 6.4 12.9 0.00 0.00 0.00 25 1011.6
20260504170503 18 97 4.8 12.9 0.00 0.00 0.00 26 1011.7
20260504151004 14 116 1.6 8.0 0.00 0.00 0.00 34 1012.4